Location: Cheyres
(46.8153°N, 6.7877°E)
Time: 00:43:54
(UTC+00:00)

Cosmos 1437 Rocket - Pass Details

Date: 11 May 2021
Orbit: 501 x 565 km, 81.2° (Epoch: 23 June)

Event Time Altitude Azimuth Distance (km) Brightness Sun altitude
Rises 19:57:58 0° 207° (SSW) 2,636 6.2 -9.6°
Reaches altitude 10° 20:00:10 10° 214° (SW) 1,763 5.3 -9.9°
Maximum altitude 20:03:51 41° 286° (WNW) 783 4.2 -10.4°
Drops below altitude 10° 20:07:39 10° 358° (N) 1,815 6.1 -10.8°
Sets 20:09:57 0° 6° (N) 2,724 6.9 -11.1°
